sat.trackr.live / text

‹ back to catalog

STARLINK-5087

NORAD 54850 · 2022-177AG

PAYLOAD ACTIVE UNKNOWN

§ Identity

Operator
Country
US
Launch date
2022-12-28
Launch site
AFETR
Launch vehicle
Mass (kg)
RCS (m²)

Purposes: comms

External: N2YO · Heavens-Above · Gunter

§ Orbital elements

Epoch: 2026-09-20T06:45:53.955936Z

Period
94.27 min
Inclination
43.0040°
Eccentricity
0.0001479
Mean motion
15.27574708 rev/d
Perigee alt
482.1 km
Apogee alt
484.1 km
Semi-major
6,861.2 km
B*
5.1382e-5
RAAN
102.4026°
Arg perigee
266.9982°
Mean anomaly
93.0700°
Rev number
20,685

§ Raw data

STARLINK-50871 54850U 22177AG  26263.28187449  .00001152  00000+0  51382-4 0  99942 54850  43.0040 102.4026 0001479 266.9982  93.0700 15.27574708206859

JSON: /api/v1/satellites/54850 · /tle

For live sub-satellite position, see the globe view (requires WebGL).

§ Visibility from observer

Set your observer location to see the next 7 days of passes ≥ 10°. The values pass through the URL so the page stays shareable.

No JS? Fill the form by hand. The geolocation button needs JavaScript.